Regional Weather Roundup
Issued by NWS

Home | Current Version | Previous Version | Graphics & Text | Print | Product List | Glossary On
Versions: 1 2 3 4 5 6 7 8 9 10 11 12 13 14 15 16 17 18 19 20 21 22 23 24 25 26 27 28 29 30 31 32 33 34 35 36 37 38 39 40 41 42 43 44 45 46 47 48 49 50
000
ASUS45 KTFX 220310
RWRMT
MONTANA REGIONAL WEATHER ROUNDUP
NATIONAL WEATHER SERVICE GREAT FALLS MT
900 PM MDT THU MAY 21 2015

NOTE: "FAIR" INDICATES FEW OR NO CLOUDS BELOW 12000 FEET WITH NO
SIGNIFICANT WEATHER AND/OR OBSTRUCTIONS TO VISIBILITY.

MTZ001>007-043-220400-
WEST OF THE DIVIDE

CITY           SKY/WX    TMP DP  RH WIND       PRES   REMARKS
KALISPELL      CLEAR     69  32  25 NE9       29.83R
MISSOULA       MOCLDY    58  46  64 SE7       29.91R
BUTTE          CLOUDY    51  41  68 N7        30.00R
MULLAN PASS    CLOUDY    53  35  50 W5        29.96R
DEER LODGE       N/A     54  41  62 N3        30.02F
EUREKA           N/A     73  34  23 NE7       29.81S
HAMILTON         N/A     61  46  59 CALM      29.91S
LIBBY            N/A     66  39  37 SE5       29.81R
RONAN            N/A     66  44  45 S3        29.91R
THOMPSON FALLS   N/A     71  39  31 CALM      29.85R
$$

MTZ008-052>055-220400-
SOUTHWEST MONTANA

CITY           SKY/WX    TMP DP  RH WIND       PRES   REMARKS
BOZEMAN        PTCLDY    55  41  59 SE13      29.96S
DILLON         CLOUDY    54  44  69 S7        29.95R
W YELLOWSTONE  PTCLDY    46  39  76 E5        30.02R
THREE FORKS      N/A     55  55 100 SE8       29.96S
TWIN BRIDGES     N/A     58  39  49 N2        29.96R
$$

MTZ009-010-012-014-046-048-049-054-220400-
EAST SLOPES AND CENTRAL MONTANA

CITY           SKY/WX    TMP DP  RH WIND       PRES   REMARKS
CUT BANK       CLEAR     60  37  42 E9        29.96S
GREAT FALLS    CLEAR     58  43  57 S5        29.94R
MALMSTROM AFB  MOCLDY    61  40  46 SE9       29.94R
HELENA         CLOUDY    57  46  66 SE10      29.96S
CONRAD           N/A     63  41  44 NE8       29.99R
$$

MTZ011-013-016-021-045-047-050-051-220400-
NORTH CENTRAL MONTANA

CITY           SKY/WX    TMP DP  RH WIND       PRES   REMARKS
HAVRE          CLEAR     57  37  47 E8        29.98R
LEWISTOWN      CLEAR     57  34  41 E12       30.00R
N BAR RANCH    FAIR      52  36  54 SE7       30.05R
CHINOOK          N/A     61  32  33 E6        29.99S
FORT BENTON      N/A     64  34  32 E14G20    29.95R
$$

MTZ017>020-022>027-061-062-220400-
NORTHEAST MONTANA

CITY           SKY/WX    TMP DP  RH WIND       PRES   REMARKS
GLASGOW        CLEAR     59  32  36 SE10      30.04S
JORDAN           N/A     62  27  26 E10       30.03R
SIDNEY         CLEAR     61  36  39 CALM      30.09R
WOLF POINT     CLEAR     64  34  32 SE5       30.07R
MALTA            N/A     61  33  34 CALM      30.00R
PLENTYWOOD       N/A     66  28  24 NE6       30.09R
POPLAR           N/A     61  36  39 E7        30.08R
$$

MTZ028>42-056>058-220400-
SOUTHCENTRAL AND SOUTHEAST MONTANA

CITY           SKY/WX    TMP DP  RH WIND       PRES   REMARKS
BAKER          CLEAR     53  32  44 SE9       30.12R
BILLINGS       PTCLDY    60  40  47 E16       29.99R
LIVINGSTON     RAIN      51  45  79 SE16      29.99S
MILES CITY     CLEAR     62  25  24 SE9       30.05R
BIG TIMBER       N/A     54  46  76 SW5       30.01R
FORSYTH          N/A     61  25  25 E8        30.02R
LAUREL           N/A     59  39  47 NE6       29.97R
ROUNDUP          N/A     59  36  42 CALM      29.92S
$$

REGIONAL REPORTS...DAKOTAS

CITY           SKY/WX    TMP DP  RH WIND       PRES   REMARKS
WILLISTON      CLEAR     62  33  33 E9        30.09R
MINOT          CLEAR     57  39  51 E5        30.11R
DICKINSON      CLEAR     54  34  46 S8        30.11R
BEACH          FAIR      48  36  61 SE8       30.13R
CROSBY         FAIR      55  39  54 SE9       30.11R
WATFORD CITY   FAIR      57  32  38 SE6       30.08R
BISMARCK       MOCLDY    59  42  53 E8        30.11R
GRAND FORKS    CLEAR     53  40  61 NE5       30.11R
FARGO          CLEAR     55  43  63 N6        30.11R
BUFFALO SD       N/A     54  31  41 SE13      30.07R
RAPID CITY     CLOUDY    54  43  66 S5        30.13S
$$

REGIONAL REPORTS...WYOMING/IDAHO/WASHINGTON

CITY           SKY/WX    TMP DP  RH WIND       PRES   REMARKS
GILLETTE       CLEAR     50  41  71 SE14      30.08F
SHERIDAN       MOCLDY    55  41  59 SE16G25   30.01S
BUFFALO WY     CLOUDY    52  42  69 S12       30.07S
CODY           MOCLDY    54  41  62 W6        30.00R
YELLOWSTONE LA   N/A     42  35  76 CALM      30.08R
IDAHO FALLS    CLOUDY    56  45  66 W9        29.93R
SALMON         CLOUDY    59  43  55 E6        29.89R
BOISE          CLOUDY    67  44  43 E7        29.82R
SPOKANE        MOCLDY    73  45  36 S8        29.80R
$$

REGIONAL REPORTS...ALBERTA

CITY           SKY/WX    TMP DP  RH WIND       PRES   REMARKS
EDMONTON       CLEAR     66  28  24 SE7       29.93S
CALGARY        PTCLDY    64  25  22 SE12G18   29.96R
LETHBRIDGE     CLEAR     59  32  36 SE8       29.94S
MEDICINE HAT   CLEAR     64  25  22 SE10      29.98R
$$

REGIONAL REPORTS...SASKATCHEWAN

CITY           SKY/WX    TMP DP  RH WIND       PRES   REMARKS
SWIFT CURRENT  CLEAR     59  27  29 SE9       30.06R
REGINA         PTCLDY    64  27  24 SW8       30.08S
SASKATOON      CLEAR     64  30  27 S7        30.06S
$$



USA.gov is the U.S. government's official web portal to all federal, state and local government web resources and services.